Weather History for Santiago de Compostela, Spain

Change the Weather History Date:

Tuesday, June 18, 2013

  Actual Average Record
Temperature  
Mean Temperature 55 °F -  
Max Temperature 64 °F 72 °F 88 °F (2014)
Min Temperature 46 °F 53 °F 42 °F (2008)
Degree Days  
Heating Degree Days 10    
Growing Degree Days 5 (Base 50)    
Moisture  
Dew Point 52 °F    
Average Humidity 93    
Maximum Humidity 100    
Minimum Humidity 68    
Precipitation  
Precipitation 0.00 in - - ()
Sea Level Pressure  
Sea Level Pressure 29.99 in    
Wind  
Wind Speed 5 mph ()    
Max Wind Speed 14 mph    
Max Gust Speed -    
Visibility 5.5 miles    
Events Fog , Rain    
Averages and records for this station are not official NWS values.
T = Trace of Precipitation, MM = Missing Value Source: Averaged Metar Reports

Daily Weather History Graph

Daily Weather History Graph

Search for Another Location

Airport:

Trip Planner

Search our weather history database for the weather conditions in past years. The results will help you decide how hot, cold, wet, or windy it might be!

Date:

Astronomy

Jun. 18, 2013 Rise Set
Actual Time 6:54 AM CEST 10:15 PM CEST
Civil Twilight 6:19 AM CEST 10:50 PM CEST
Nautical Twilight 5:33 AM CEST 11:36 PM CEST
Astronomical Twilight 4:36 AM CEST 12:33 AM CEST
Moon 4:38 PM CEST (6/18) 3:02 AM CEST (6/18)
Length of Visible Light 16h 31m
Length of Day
15h 20m
Waxing Gibbous, 68% of the Moon is Illuminated
Jun 18
Waxing Gibbous
Jun 23
Full
Jun 30
Last Quarter
Jul 8
New
Jul 16
First Quarter

Hourly Weather History & Observations

Time (CEST) Temp. Dew Point Humidity Pressure Visibility Wind Dir Wind Speed Gust Speed Precip Events Conditions
12:00 AM 51.8 °F 51.8 °F 100% 29.86 in 3.1 mi ESE 6.9 mph - N/A Rain Light Rain Showers
12:30 AM 51.8 °F 51.8 °F 100% 29.86 in 4.3 mi ESE 4.6 mph - N/A   Partly Cloudy
1:00 AM 51.8 °F 51.8 °F 100% 29.86 in 6.2 mi ESE 5.8 mph - N/A   Partly Cloudy
1:30 AM 51.8 °F 51.8 °F 100% 29.86 in 6.2 mi ESE 5.8 mph - N/A   Partly Cloudy
2:00 AM 51.8 °F 51.8 °F 100% 29.86 in 6.2 mi SE 4.6 mph - N/A   Scattered Clouds
2:30 AM 50.0 °F 50.0 °F 100% 29.86 in 6.2 mi SE 4.6 mph - N/A   Scattered Clouds
3:00 AM 50.0 °F 50.0 °F 100% 29.86 in 6.2 mi Variable 1.2 mph - N/A   Scattered Clouds
3:30 AM 50.0 °F 50.0 °F 100% 29.89 in 6.2 mi ENE 3.5 mph - N/A   Mostly Cloudy
4:00 AM 51.8 °F 51.8 °F 100% 29.92 in 6.2 mi ENE 5.8 mph - N/A   Mostly Cloudy
4:30 AM 50.0 °F 50.0 °F 100% 29.92 in 6.2 mi East 3.5 mph - N/A   Mostly Cloudy
5:00 AM 50.0 °F 50.0 °F 100% 29.92 in 6.2 mi Variable 2.3 mph - N/A   Mostly Cloudy
5:30 AM 51.8 °F 51.8 °F 100% 29.92 in 6.2 mi Calm Calm - N/A   Scattered Clouds
6:00 AM 50.0 °F 50.0 °F 100% 29.92 in 6.2 mi Calm Calm - N/A   Scattered Clouds
6:30 AM 48.2 °F 48.2 °F 100% 29.92 in 1.9 mi Variable 1.2 mph - N/A Fog Patches of Fog
7:00 AM 46.4 °F 46.4 °F 100% 29.92 in 6.2 mi Variable 1.2 mph - N/A Fog Patches of Fog
7:30 AM 48.2 °F 48.2 °F 100% 29.95 in 6.2 mi Calm Calm - N/A Fog Partly Cloudy
8:00 AM 50.0 °F 50.0 °F 100% 29.95 in 6.2 mi Calm Calm - N/A Fog Partly Cloudy
8:30 AM 50.0 °F 50.0 °F 100% 29.98 in 6.2 mi Variable 2.3 mph - N/A Fog Partly Cloudy
9:00 AM 51.8 °F 51.8 °F 100% 30.01 in 6.2 mi North 4.6 mph - N/A   Partly Cloudy
9:30 AM 53.6 °F 53.6 °F 100% 30.01 in 6.2 mi North 5.8 mph - N/A   Partly Cloudy
10:00 AM 55.4 °F 53.6 °F 94% 30.01 in 6.2 mi Variable 3.5 mph - N/A   Scattered Clouds
10:30 AM 57.2 °F 55.4 °F 94% 30.01 in 6.2 mi NNW 10.4 mph - N/A   Scattered Clouds
11:00 AM 57.2 °F 55.4 °F 94% 30.01 in 6.2 mi North 3.5 mph - N/A   Mostly Cloudy
11:30 AM 60.8 °F 55.4 °F 82% 30.01 in 6.2 mi North 8.1 mph - N/A   Mostly Cloudy
12:00 PM 60.8 °F 55.4 °F 82% 30.01 in 6.2 mi NNE 6.9 mph - N/A   Mostly Cloudy
12:30 PM 60.8 °F 53.6 °F 77% 30.01 in 6.2 mi North 9.2 mph - N/A   Mostly Cloudy
1:00 PM 64.4 °F 55.4 °F 73% 30.01 in 6.2 mi North 9.2 mph - N/A   Mostly Cloudy
1:30 PM 62.6 °F 51.8 °F 68% 30.01 in 6.2 mi North 10.4 mph - N/A   Mostly Cloudy
2:00 PM 60.8 °F 53.6 °F 77% 30.01 in 6.2 mi North 10.4 mph - N/A   Mostly Cloudy
2:30 PM 60.8 °F 53.6 °F 77% 30.01 in 6.2 mi NNW 11.5 mph - N/A   Mostly Cloudy
3:00 PM 60.8 °F 53.6 °F 77% 30.01 in 6.2 mi NNW 13.8 mph - N/A   Mostly Cloudy
3:30 PM 60.8 °F 53.6 °F 77% 30.01 in 6.2 mi NNW 12.7 mph - N/A   Mostly Cloudy
4:00 PM 59.0 °F 53.6 °F 82% 30.04 in 6.2 mi North 10.4 mph - N/A   Mostly Cloudy
4:30 PM 59.0 °F 51.8 °F 77% 30.04 in 6.2 mi North 11.5 mph - N/A   Mostly Cloudy
5:00 PM 57.2 °F 51.8 °F 82% 30.04 in 6.2 mi North 9.2 mph - N/A   Mostly Cloudy
5:30 PM 57.2 °F 53.6 °F 88% 30.04 in 6.2 mi North 9.2 mph - N/A Rain Light Rain
6:00 PM 55.4 °F 51.8 °F 88% 30.04 in 6.2 mi NNW 10.4 mph - N/A Rain Light Rain
6:30 PM 53.6 °F 51.8 °F 94% 30.04 in 6.2 mi North 9.2 mph - N/A Rain Light Rain
7:00 PM 53.6 °F 53.6 °F 100% 30.04 in 6.2 mi North 9.2 mph - N/A Rain Rain
7:30 PM 53.6 °F 51.8 °F 94% 30.04 in 6.2 mi NNW 6.9 mph - N/A Rain Light Rain
8:00 PM 53.6 °F 51.8 °F 94% 30.04 in 5.6 mi NNW 5.8 mph - N/A Rain Light Rain
8:30 PM 53.6 °F 51.8 °F 94% 30.04 in 5.6 mi North 3.5 mph - N/A Rain Light Rain
9:00 PM 53.6 °F 53.6 °F 100% 30.04 in 5.6 mi Variable 1.2 mph - N/A Rain Light Rain
9:10 PM 53.6 °F 53.6 °F 100% 30.04 in 1.9 mi Variable 2.3 mph - N/A Rain Rain
9:30 PM 53.6 °F 53.6 °F 100% 30.04 in 4.3 mi NW 3.5 mph - N/A Rain Rain
10:00 PM 51.8 °F 51.8 °F 100% 30.06 in 1.9 mi Variable 1.2 mph - N/A Rain Light Rain
10:18 PM 51.8 °F 51.8 °F 100% 30.06 in 3.7 mi Calm Calm - N/A Rain Light Rain
10:30 PM 53.6 °F 53.6 °F 100% 30.06 in 5.0 mi Calm Calm - N/A   Mostly Cloudy
10:36 PM 51.8 °F 51.8 °F 100% 30.06 in 3.1 mi Variable 1.2 mph - N/A   Mostly Cloudy
11:00 PM 51.8 °F 51.8 °F 100% 30.06 in 2.2 mi Variable 1.2 mph - N/A   Mostly Cloudy
11:30 PM 53.6 °F 53.6 °F 100% 30.06 in 1.6 mi Calm Calm - N/A   Overcast